Zurück zum Katalog

STARLINK-6257

AktivKommunikationVLEO
NORAD 57088·PAYLOAD·🇺🇸 United States

Gestartet Jun 22, 2023 von Vandenberg Space Force Base

Loading…

Nächste Überflüge (nächste 24 Stunden)

TLE

AktuellSource: CelesTrak SupGP

Epoche: Sep 14, 2026, 21:55 UTC

1 57088C 23088AS  26257.91368056  .00005108  00000+0  18505-3 0  2571
2 57088  42.9985 107.4451 0001861 237.6229 358.4005 15.27567737    12

Verfolge STARLINK-6257 in Echtzeit mit AllMySat

Download on the App Store